Location: Middle Street
(51.7167°N, 0.0333°E)
Time: 19:52:31
(UTC+00:00)

SJ 16-02 - Pass Details

Date: 20 January 2021
Orbit: 606 x 615 km, 75.0° (Epoch: 27 February)

Event Time Altitude Azimuth Distance (km) Brightness Sun altitude
Rises 18:48:48 0° 198° (SSW) 2,867 5.1 -21.3°
Reaches altitude 10° 18:51:01 10° 197° (SSW) 1,965 4.2 -21.6°
Maximum altitude 18:55:24 79° 112° (ESE) 629 1.2 -22.3°
Enters shadow 18:55:53 68° 51° (NE) 662 1.2 -22.4°
